Shute Harbour, Australia

12:03 AM AEST on April 22, 2018 (GMT +1000)
Shute Harbour

Weather History for 94368 - May, 2013

Change the Weather History Date:

Monday, May 6, 2013

  Actual Average Record
Temperature  
Mean Temperature 74 °F -  
Max Temperature 78 °F - - ()
Min Temperature 69 °F - - ()
Cooling Degree Days 8    
Growing Degree Days 24 (Base 50)    
Moisture  
Dew Point 65 °F    
Average Humidity 74    
Maximum Humidity 100    
Minimum Humidity 49    
Precipitation  
Precipitation 1.18 in - - ()
Sea Level Pressure  
Sea Level Pressure 30.01 in    
Wind  
Wind Speed 20 mph ()    
Max Wind Speed 34 mph    
Max Gust Speed 41 mph    
T = Trace of Precipitation, MM = Missing Value Source: Averaged Metar Reports

Daily Weather History Graph

Daily Weather History Graph

Search for Another Location

Airport or City:

Astronomy

May. 06, 2013 Rise Set
Actual Time 6:22 AM AEST 5:39 PM AEST
Civil Twilight 5:59 AM AEST 6:02 PM AEST
Nautical Twilight 5:32 AM AEST 6:28 PM AEST
Astronomical Twilight 5:06 AM AEST 6:54 PM AEST
Moon 2:49 AM AEST (5/6) 3:02 PM AEST (5/6)
Length of Visible Light 12h 02m
Length of Day
11h 16m
Waning Crescent, 15% of the Moon is Illuminated
May 6
Waning Crescent
May 10
New
May 18
First Quarter
May 25
Full
Jun 1
Last Quarter

Hourly Weather History & Observations

Time (AEST) Temp. Dew Point Humidity Pressure Visibility Wind Dir Wind Speed Gust Speed Precip Events Conditions
12:00 AM 73 °F 65 °F 69% 30.03 in - ESE 21.9 mph - -  
12:00 AM 73.4 °F 64.4 °F 73% 30.04 in - ESE 21.9 mph - N/A   Unknown
12:30 AM 73.4 °F 62.6 °F 69% 30.01 in - ESE 23.0 mph - N/A   Unknown
1:00 AM 73.4 °F 62.6 °F 69% 30.01 in - ESE 20.7 mph - N/A   Unknown
1:30 AM 75.2 °F 64.4 °F 69% 30.01 in - ESE 23.0 mph - N/A   Unknown
2:00 AM 73.4 °F 60.8 °F 65% 30.01 in - East 23.0 mph - N/A   Unknown
2:30 AM 73.4 °F 60.8 °F 65% 29.98 in - ESE 20.7 mph - N/A   Unknown
3:00 AM 74 °F 59 °F 49% 29.99 in - ESE 20.7 mph - -  
3:00 AM 73.4 °F 59.0 °F 61% 29.98 in - ESE 20.7 mph - N/A   Unknown
3:30 AM 73.4 °F 60.8 °F 65% 29.98 in - ESE 24.2 mph - N/A   Unknown
4:00 AM 73.4 °F 60.8 °F 65% 29.98 in - ESE 21.9 mph - N/A   Unknown
4:30 AM 73.4 °F 62.6 °F 69% 29.98 in - ESE 19.6 mph - N/A   Unknown
5:00 AM 73.4 °F 62.6 °F 69% 29.98 in - ESE 19.6 mph - N/A   Unknown
5:30 AM 73.4 °F 62.6 °F 69% 29.98 in - ESE 21.9 mph - N/A   Unknown
6:00 AM 74 °F 63 °F 61% 29.99 in - ESE 21.9 mph - -  
6:00 AM 73.4 °F 62.6 °F 69% 29.98 in - ESE 21.9 mph - N/A   Unknown
6:30 AM 75.2 °F 62.6 °F 65% 30.01 in - East 21.9 mph - N/A   Unknown
7:00 AM 75.2 °F 64.4 °F 69% 30.01 in - ESE 23.0 mph - N/A   Unknown
7:30 AM 75.2 °F 62.6 °F 65% 30.04 in - ESE 20.7 mph - N/A   Unknown
8:00 AM 75.2 °F 62.6 °F 65% 30.04 in - ESE 23.0 mph - N/A   Unknown
8:30 AM 77.0 °F 62.6 °F 61% 30.04 in - ESE 20.7 mph - N/A   Unknown
9:00 AM 76 °F 61 °F 50% 30.06 in - ESE 18.4 mph - -  
9:00 AM 75.2 °F 60.8 °F 61% 30.06 in - ESE 18.4 mph - N/A   Unknown
9:30 AM 78.8 °F 62.6 °F 57% 30.06 in - ESE 16.1 mph - N/A   Unknown
9:59 AM 75.2 °F 62.6 °F 65% 30.06 in - ESE 18.4 mph 34.5 mph N/A   Unknown
10:00 AM 73.4 °F 64.4 °F 73% 30.06 in - ESE 20.7 mph 36.8 mph N/A   Unknown
10:01 AM 73.4 °F 66.2 °F 78% 30.06 in - East 34.5 mph - N/A   Unknown
10:25 AM 68.0 °F 66.2 °F 94% 30.09 in - East 20.7 mph 33.4 mph N/A   Unknown
10:30 AM 68.0 °F 66.2 °F 94% 30.09 in - East 19.6 mph - N/A   Unknown
11:00 AM 69.8 °F 68.0 °F 94% 30.06 in - SSE 8.1 mph - N/A   Unknown
11:14 AM 69.8 °F 66.2 °F 88% 30.06 in - ESE 21.9 mph - N/A   Unknown
11:30 AM 71.6 °F 68.0 °F 88% 30.04 in - SE 12.7 mph - N/A   Unknown
12:00 PM 74 °F 65 °F 66% 30.04 in - ESE 15.0 mph - -  
12:00 PM 75.2 °F 64.4 °F 69% 30.04 in - ESE 15.0 mph - N/A   Unknown
12:30 PM 77.0 °F 66.2 °F 69% 30.01 in - SE 10.4 mph - N/A   Unknown
1:00 PM 77.0 °F 64.4 °F 65% 30.01 in - East 19.6 mph - N/A   Unknown
1:30 PM 77.0 °F 64.4 °F 65% 29.98 in - ESE 23.0 mph - N/A   Unknown
2:00 PM 77.0 °F 64.4 °F 65% 29.98 in - ESE 21.9 mph - N/A   Unknown
2:30 PM 77.0 °F 64.4 °F 65% 29.98 in - East 19.6 mph - N/A   Unknown
3:00 PM 77 °F 62 °F 51% 29.96 in - East 15.0 mph - -  
3:00 PM 77.0 °F 62.6 °F 61% 29.95 in - East 15.0 mph - N/A   Unknown
3:30 PM 77.0 °F 62.6 °F 61% 29.95 in - East 15.0 mph - N/A   Unknown
4:00 PM 77.0 °F 64.4 °F 65% 29.95 in - East 20.7 mph - N/A   Unknown
4:30 PM 75.2 °F 66.2 °F 73% 29.95 in - ESE 16.1 mph - N/A   Unknown
5:00 PM 75.2 °F 64.4 °F 69% 29.98 in - ESE 17.3 mph - N/A   Unknown
5:30 PM 75.2 °F 66.2 °F 73% 29.98 in - ESE 19.6 mph - N/A   Unknown
6:00 PM 76 °F 66 °F 63% 29.99 in - East 19.6 mph - -  
6:00 PM 75.2 °F 66.2 °F 73% 29.98 in - East 19.6 mph - N/A   Unknown
6:30 PM 75.2 °F 66.2 °F 73% 29.98 in - East 17.3 mph - N/A   Unknown
7:00 PM 75.2 °F 66.2 °F 73% 29.98 in - East 16.1 mph - N/A   Unknown
7:30 PM 75.2 °F 66.2 °F 73% 29.98 in - East 17.3 mph - N/A   Unknown
7:48 PM 73.4 °F 68.0 °F 83% 30.01 in - East 21.9 mph 33.4 mph N/A   Unknown
8:00 PM 71.6 °F 69.8 °F 94% 30.01 in - East 27.6 mph - N/A   Unknown
8:16 PM 69.8 °F 68.0 °F 94% 30.01 in - SE 13.8 mph 25.3 mph N/A   Unknown
8:30 PM 69.8 °F 69.8 °F 100% 30.01 in - East 5.8 mph - N/A   Unknown
8:44 PM 73.4 °F 71.6 °F 94% 30.01 in - East 24.2 mph - N/A   Unknown
9:00 PM 74 °F 70 °F 84% 30.01 in - East 29.9 mph - -  
9:00 PM 73.4 °F 69.8 °F 88% 30.01 in - East 29.9 mph - N/A   Unknown
9:30 PM 73.4 °F 69.8 °F 88% 30.01 in - East 31.1 mph - N/A   Unknown
10:00 PM 73.4 °F 69.8 °F 88% 30.01 in - East 28.8 mph - N/A   Unknown
10:30 PM 73.4 °F 69.8 °F 88% 30.01 in - ESE 25.3 mph - N/A   Unknown
10:56 PM 71.6 °F 68.0 °F 88% 30.01 in - NE 26.5 mph - N/A   Unknown
10:58 PM 69.8 °F 68.0 °F 94% 30.01 in - NE 29.9 mph 41.4 mph N/A   Unknown
11:00 PM 69.8 °F 68.0 °F 94% 30.01 in - NE 31.1 mph - N/A   Unknown
11:08 PM 69.8 °F 69.8 °F 100% 30.01 in - NE 28.8 mph 40.3 mph N/A   Unknown
11:27 PM 69.8 °F 69.8 °F 100% 30.04 in - ENE 20.7 mph - N/A   Unknown
11:30 PM 69.8 °F 69.8 °F 100% 30.04 in - ENE 18.4 mph - N/A   Unknown